Temp
-12 -11 -11 -11 -11 -11 -10 -10 -10 -10 -10 -10 -10 -10 -10 -11 -11 -11 -11 -12 -12 -12 -11 -11 -11 -11 -11 -11 -11 -11 -11 -11 -11 -11 -11 -11 -11 -11 -11 -11 -11 -11 -11 -11 -11 -11 -11
-11 -11 -11 -11 -11 -10 -10 -10 -10 -10 -10 -10 -10 -11 -11 -11 -11 -11 -12 -12 -12 -12 -12 -11 -11 -11 -11 -11 -12 -12 -12 -11 -11 -11 -11 -11 -11 -11 -11 -11 -11 -11 -11 -11 -11 -11 -11
-11 -11 -11 -11 -11 -10 -10 -10 -10 -11 -11 -11 -11 -11 -11 -12 -12 -12 -12 -12 -12 -12 -12 -12 -12 -12 -12 -12 -12 -12 -12 -12 -12 -12 -12 -12 -12 -12 -12 -11 -11 -11 -11 -11 -11 -11 -11
-11 -11 -11 -11 -11 -11 -11 -11 -11 -11 -11 -11 -11 -12 -12 -12 -12 -13 -13 -13 -13 -12 -12 -12 -12 -12 -12 -12 -12 -12 -12 -12 -12 -12 -12 -12 -12 -12 -12 -12 -12 -12 -12 -12 -12 -12 -12
-12 -12 -12 -11 -11 -11 -11 -11 -12 -12 -12 -12 -13 -12 -13 -13 -13 -13 -13 -13 -13 -13 -13 -12 -12 -12 -12 -12 -12 -12 -12 -12 -12 -12 -12 -12 -12 -12 -12 -12 -12 -12 -12 -12 -12 -12 -12
-13 -12 -12 -12 -12 -12 -12 -12 -12 -12 -12 -13 -13 -13 -14 -14 -14 -14 -14 -14 -13 -13 -13 -13 -13 -12 -12 -12 -12 -12 -12 -12 -12 -13 -13 -13 -13 -13 -12 -12 -12 -12 -12 -12 -12 -12 -12
-13 -13 -13 -13 -12 -12 -12 -13 -13 -13 -13 -14 -14 -14 -14 -15 -14 -14 -14 -14 -14 -14 -13 -13 -13 -13 -13 -13 -13 -13 -12 -13 -13 -13 -13 -13 -13 -13 -13 -13 -13 -13 -12 -12 -12 -12 -12
-13 -13 -13 -13 -13 -13 -13 -13 -14 -14 -14 -14 -15 -15 -15 -15 -15 -15 -14 -14 -14 -14 -14 -13 -13 -13 -13 -13 -13 -13 -13 -13 -13 -13 -13 -13 -13 -13 -13 -13 -13 -13 -13 -13 -13 -13 -12
-13 -14 -14 -14 -14 -14 -14 -14 -14 -14 -15 -15 -15 -15 -15 -15 -15 -15 -15 -14 -14 -14 -14 -13 -13 -13 -13 -13 -13 -13 -13 -13 -13 -13 -13 -13 -13 -13 -13 -13 -13 -13 -13 -13 -13 -13 -13
-13 -14 -14 -14 -14 -14 -14 -14 -14 -14 -14 -15 -15 -15 -15 -15 -15 -15 -15 -15 -14 -14 -14 -13 -13 -13 -13 -13 -13 -13 -13 -14 -13 -14 -14 -13 -14 -14 -14 -14 -14 -14 -14 -14 -13 -13 -13
-14 -14 -14 -14 -14 -14 -14 -14 -15 -15 -15 -15 -15 -15 -15 -15 -15 -15 -15 -14 -14 -14 -14 -13 -14 -14 -14 -14 -14 -14 -14 -14 -14 -14 -14 -14 -14 -14 -15 -15 -15 -15 -14 -14 -14 -14 -13
-15 -15 -15 -14 -14 -15 -15 -15 -15 -15 -15 -15 -15 -15 -15 -15 -15 -15 -15 -14 -14 -14 -14 -14 -14 -14 -14 -14 -14 -14 -14 -14 -15 -15 -15 -15 -15 -15 -15 -15 -15 -15 -15 -15 -14 -14 -14
-15 -15 -15 -15 -15 -15 -15 -15 -15 -15 -15 -15 -15 -15 -15 -15 -15 -15 -15 -15 -15 -14 -14 -15 -15 -15 -15 -15 -15 -15 -15 -15 -15 -15 -15 -15 -15 -15 -16 -15 -16 -16 -16 -15 -15 -15 -14
-15 -15 -15 -15 -15 -15 -15 -15 -15 -15 -15 -15 -15 -15 -15 -15 -15 -15 -15 -15 -15 -15 -15 -15 -16 -16 -15 -15 -15 -16 -16 -16 -16 -16 -16 -16 -15 -16 -16 -16 -16 -16 -17 -17 -16 -16 -16
-15 -15 -15 -15 -15 -15 -15 -15 -15 -15 -15 -15 -15 -15 -15 -15 -15 -15 -15 -15 -15 -15 -16 -16 -17 -16 -16 -16 -16 -16 -16 -16 -16 -17 -17 -17 -16 -16 -16 -16 -17 -17 -17 -17 -17 -17 -16
-15 -15 -15 -15 -15 -15 -15 -15 -15 -15 -15 -15 -15 -15 -16 -16 -16 -16 -16 -15 -16 -16 -16 -16 -16 -16 -16 -17 -17 -17 -17 -16 -17 -17 -17 -17 -17 -16 -16 -17 -17 -18 -18 -18 -18 -18 -17
-15 -15 -16 -16 -16 -16 -16 -15 -15 -15 -15 -15 -15 -15 -15 -16 -16 -16 -15 -16 -16 -16 -16 -16 -16 -17 -17 -17 -17 -17 -17 -17 -17 -17 -18 -18 -17 -16 -17 -17 -18 -18 -18 -18 -19 -18 -18
-16 -16 -16 -16 -16 -16 -16 -16 -16 -16 -16 -16 -16 -16 -16 -16 -16 -16 -16 -16 -16 -16 -16 -16 -16 -17 -17 -17 -16 -17 -17 -17 -17 -18 -18 -18 -18 -17 -17 -18 -18 -18 -18 -19 -19 -18 -18
-16 -16 -16 -16 -16 -16 -16 -16 -17 -16 -16 -16 -16 -16 -16 -16 -16 -16 -16 -16 -16 -17 -17 -16 -16 -17 -17 -17 -17 -17 -17 -18 -18 -18 -18 -19 -18 -18 -17 -18 -18 -18 -18 -19 -19 -19 -17
-17 -17 -16 -16 -17 -17 -17 -17 -17 -17 -17 -17 -17 -16 -17 -17 -16 -16 -17 -16 -16 -17 -17 -17 -16 -17 -17 -17 -18 -17 -18 -18 -19 -19 -19 -19 -18 -18 -19 -20 -20 -19 -19 -19 -19 -19 -19
-17 -17 -17 -17 -18 -17 -17 -17 -17 -17 -17 -17 -17 -17 -17 -17 -17 -17 -17 -17 -18 -17 -17 -17 -17 -18 -18 -18 -18 -18 -19 -19 -19 -20 -20 -20 -19 -19 -19 -20 -20 -20 -19 -19 -19 -20 -21
-18 -18 -18 -18 -17 -17 -17 -17 -18 -18 -17 -17 -17 -18 -18 -17 -17 -17 -17 -17 -17 -18 -17 -18 -18 -18 -18 -18 -20 -20 -20 -20 -19 -19 -20 -20 -19 -20 -19 -20 -20 -19 -19 -19 -19 -21 -21
-19 -19 -19 -19 -19 -19 -18 -18 -19 -19 -19 -18 -19 -19 -19 -18 -18 -17 -17 -18 -18 -19 -18 -19 -19 -19 -19 -20 -20 -20 -21 -21 -20 -20 -21 -21 -21 -21 -20 -21 -20 -19 -19 -20 -20 -21 -22
-20 -20 -20 -20 -20 -19 -19 -20 -20 -20 -20 -21 -19 -20 -19 -18 -19 -18 -19 -20 -20 -20 -20 -21 -20 -21 -21 -21 -22 -22 -21 -21 -21 -21 -21 -21 -22 -22 -22 -22 -21 -20 -19 -20 -21 -21 -21
-21 -21 -21 -20 -20 -20 -20 -20 -20 -20 -21 -21 -21 -21 -21 -21 -19 -18 -20 -20 -21 -21 -21 -22 -22 -23 -23 -23 -23 -22 -22 -22 -21 -21 -21 -22 -22 -23 -23 -23 -22 -20 -21 -21 -22 -22 -22
-21 -21 -21 -21 -21 -21 -21 -21 -22 -21 -22 -22 -21 -22 -23 -22 -19 -21 -21 -20 -21 -21 -21 -21 -22 -22 -22 -23 -23 -23 -22 -22 -21 -21 -21 -22 -23 -23 -23 -24 -24 -21 -22 -23 -24 -24 -25
-22 -22 -22 -22 -22 -22 -22 -22 -22 -22 -23 -23 -23 -23 -23 -24 -21 -22 -21 -22 -21 -21 -21 -21 -22 -22 -22 -23 -23 -23 -23 -23 -22 -22 -22 -23 -24 -24 -24 -25 -25 -23 -25 -25 -25 -25 -26
-22 -22 -22 -23 -23 -23 -23 -23 -23 -23 -23 -23 -23 -23 -24 -25 -23 -22 -22 -22 -22 -22 -22 -22 -22 -22 -23 -23 -23 -23 -24 -24 -24 -23 -24 -25 -25 -24 -25 -26 -25 -25 -26 -26 -26 -26 -27
-23 -23 -23 -23 -23 -23 -23 -23 -23 -23 -24 -24 -23 -24 -25 -25 -24 -23 -23 -22 -22 -23 -23 -23 -23 -23 -24 -24 -24 -25 -25 -26 -25 -25 -24 -26 -26 -26 -26 -26 -26 -26 -26 -27 -27 -27 -27
Height
5761 5762 5764 5766 5767 5770 5773 5775 5777 5779 5780 5781 5782 5783 5785 5786 5787 5789 5792 5794 5798 5800 5802 5804 5805 5806 5807 5808 5809 5809 5809 5808 5808 5807 5806 5804 5802 5800 5798 5796 5793 5790 5787 5785 5782 5779 5773
5761 5762 5763 5765 5766 5768 5771 5772 5774 5775 5776 5777 5778 5779 5780 5781 5783 5786 5788 5791 5794 5796 5798 5799 5801 5802 5803 5804 5804 5804 5804 5803 5802 5801 5800 5798 5796 5794 5792 5790 5786 5783 5780 5777 5774 5772 5766
5760 5761 5762 5764 5765 5766 5768 5769 5770 5771 5771 5772 5773 5774 5776 5777 5779 5781 5784 5786 5789 5792 5793 5795 5796 5798 5799 5799 5799 5799 5799 5798 5797 5796 5794 5792 5790 5788 5786 5783 5780 5777 5774 5770 5767 5763 5759
5759 5760 5761 5761 5762 5763 5763 5764 5765 5766 5767 5767 5769 5770 5771 5773 5775 5777 5779 5782 5784 5787 5789 5790 5792 5793 5793 5794 5793 5794 5793 5792 5791 5790 5788 5786 5783 5781 5778 5776 5773 5769 5767 5763 5760 5756 5752
5758 5759 5759 5760 5760 5760 5760 5760 5761 5762 5763 5763 5764 5765 5766 5768 5770 5773 5775 5778 5780 5783 5785 5786 5787 5788 5789 5788 5788 5788 5786 5785 5784 5782 5780 5778 5776 5774 5771 5768 5765 5762 5758 5755 5751 5748 5744
5757 5758 5758 5758 5757 5757 5757 5757 5758 5758 5759 5759 5760 5761 5762 5764 5767 5769 5772 5774 5776 5778 5780 5781 5782 5784 5783 5783 5781 5781 5780 5778 5778 5775 5773 5771 5769 5766 5763 5759 5756 5753 5750 5746 5742 5740 5736
5756 5756 5756 5756 5756 5755 5755 5755 5756 5756 5757 5756 5757 5758 5759 5761 5764 5766 5768 5770 5774 5775 5775 5777 5777 5777 5776 5776 5775 5774 5773 5772 5770 5768 5766 5763 5761 5758 5754 5750 5747 5743 5740 5737 5732 5729 5728
5754 5754 5755 5755 5754 5754 5753 5753 5753 5753 5754 5755 5755 5756 5757 5759 5760 5763 5764 5765 5767 5769 5770 5770 5770 5770 5770 5770 5769 5767 5766 5765 5763 5760 5757 5755 5752 5748 5745 5741 5738 5734 5730 5727 5724 5719 5716
5751 5752 5752 5752 5752 5751 5750 5750 5750 5750 5751 5752 5753 5753 5755 5756 5757 5759 5759 5761 5761 5762 5763 5764 5764 5764 5763 5763 5762 5760 5758 5756 5754 5751 5748 5746 5744 5739 5736 5732 5728 5725 5720 5717 5713 5710 5707
5748 5748 5749 5749 5749 5749 5748 5748 5747 5747 5747 5748 5749 5750 5750 5751 5754 5754 5754 5754 5755 5755 5756 5758 5757 5757 5756 5754 5754 5751 5749 5747 5745 5742 5739 5737 5733 5730 5727 5723 5719 5716 5711 5706 5702 5697 5695
5743 5743 5744 5744 5744 5745 5745 5745 5744 5744 5744 5744 5745 5745 5746 5746 5746 5747 5749 5748 5748 5748 5748 5751 5749 5747 5745 5746 5745 5743 5740 5737 5735 5732 5730 5727 5722 5720 5717 5713 5708 5706 5700 5695 5691 5687 5684
5737 5737 5737 5737 5738 5738 5738 5739 5739 5739 5738 5738 5739 5739 5739 5739 5739 5740 5740 5739 5739 5741 5738 5740 5738 5737 5736 5734 5732 5731 5730 5728 5723 5721 5719 5715 5713 5710 5707 5703 5699 5694 5690 5684 5679 5675 5672
5730 5730 5730 5730 5730 5731 5731 5731 5731 5731 5732 5731 5730 5731 5731 5731 5731 5731 5730 5730 5730 5730 5731 5729 5728 5726 5724 5723 5720 5719 5718 5716 5713 5708 5708 5705 5703 5699 5697 5692 5689 5685 5680 5672 5666 5662 5659
5723 5723 5723 5723 5722 5722 5723 5723 5723 5722 5722 5722 5722 5721 5721 5721 5721 5720 5720 5720 5719 5721 5719 5717 5715 5713 5713 5712 5710 5708 5705 5705 5703 5698 5693 5692 5689 5688 5685 5682 5677 5673 5671 5665 5652 5649 5646
5714 5714 5713 5714 5713 5713 5713 5713 5713 5713 5713 5712 5712 5712 5712 5711 5710 5709 5709 5708 5709 5709 5707 5704 5701 5699 5700 5701 5696 5694 5693 5693 5692 5688 5683 5677 5675 5673 5672 5669 5667 5661 5659 5655 5646 5637 5631
5704 5704 5704 5703 5703 5703 5703 5703 5703 5702 5702 5702 5702 5701 5701 5700 5699 5698 5696 5698 5696 5695 5693 5691 5689 5687 5686 5687 5684 5682 5678 5680 5678 5675 5670 5665 5659 5658 5659 5656 5655 5650 5647 5642 5636 5624 5617
5694 5693 5693 5692 5692 5692 5692 5691 5691 5691 5689 5689 5689 5689 5691 5688 5686 5685 5686 5686 5684 5682 5680 5678 5677 5674 5673 5672 5669 5666 5664 5666 5663 5660 5657 5653 5648 5645 5644 5643 5641 5637 5633 5629 5622 5617 5603
5680 5680 5680 5680 5680 5679 5678 5678 5678 5677 5676 5675 5675 5675 5677 5675 5674 5674 5674 5672 5671 5670 5669 5664 5663 5662 5661 5659 5654 5652 5652 5650 5646 5645 5642 5639 5633 5630 5629 5627 5625 5622 5618 5614 5607 5603 5593
5665 5665 5665 5665 5665 5664 5664 5663 5663 5662 5662 5661 5659 5660 5661 5661 5659 5660 5659 5657 5655 5658 5657 5654 5650 5648 5647 5645 5640 5638 5638 5639 5633 5630 5625 5625 5619 5616 5616 5615 5609 5605 5603 5598 5592 5586 5582
5649 5648 5648 5648 5649 5648 5648 5648 5647 5647 5647 5647 5645 5644 5646 5644 5644 5644 5643 5642 5643 5643 5643 5640 5637 5635 5632 5630 5627 5623 5623 5621 5619 5615 5611 5608 5605 5606 5605 5601 5596 5593 5590 5583 5575 5567 5571
5633 5633 5632 5632 5631 5633 5633 5633 5631 5630 5630 5632 5630 5629 5629 5629 5630 5628 5628 5628 5631 5628 5625 5624 5623 5620 5617 5614 5612 5612 5608 5606 5604 5601 5596 5592 5590 5588 5589 5584 5580 5578 5574 5568 5559 5557 5546
5616 5616 5617 5616 5615 5617 5617 5616 5614 5610 5609 5612 5613 5613 5612 5613 5612 5612 5611 5616 5612 5609 5609 5610 5609 5604 5602 5602 5599 5594 5592 5591 5590 5587 5581 5579 5574 5570 5571 5566 5561 5560 5558 5553 5545 5537 5529
5598 5598 5599 5599 5598 5600 5601 5601 5600 5595 5591 5593 5595 5594 5592 5595 5594 5594 5597 5596 5596 5592 5595 5592 5591 5588 5587 5587 5580 5581 5577 5576 5574 5573 5568 5562 5559 5552 5550 5545 5542 5541 5550 5542 5528 5526 5516
5579 5581 5582 5582 5582 5582 5583 5583 5583 5579 5575 5574 5575 5574 5571 5574 5575 5579 5579 5579 5581 5579 5576 5577 5573 5571 5571 5566 5565 5563 5563 5562 5559 5560 5555 5548 5542 5534 5532 5526 5521 5535 5529 5520 5512 5511 5501
5559 5559 5561 5563 5563 5564 5565 5565 5564 5562 5557 5555 5558 5556 5553 5550 5556 5562 5561 5563 5562 5563 5562 5561 5562 5559 5553 5552 5547 5542 5544 5543 5546 5545 5542 5534 5524 5517 5510 5505 5502 5521 5509 5498 5492 5494 5489
5533 5536 5537 5538 5541 5541 5542 5543 5543 5542 5538 5532 5534 5535 5530 5529 5544 5543 5540 5545 5545 5546 5546 5549 5546 5541 5539 5534 5529 5523 5521 5523 5522 5522 5523 5516 5508 5501 5495 5482 5478 5501 5490 5479 5470 5464 5475
5507 5508 5511 5513 5515 5517 5519 5520 5521 5520 5518 5515 5519 5516 5510 5504 5525 5518 5522 5522 5525 5526 5525 5527 5526 5522 5520 5516 5510 5507 5503 5504 5499 5502 5501 5495 5488 5479 5477 5461 5460 5477 5470 5462 5453 5456 5446
5477 5479 5482 5485 5488 5490 5492 5495 5497 5498 5497 5492 5502 5497 5489 5482 5499 5501 5506 5504 5505 5506 5505 5508 5501 5500 5496 5491 5489 5487 5480 5480 5475 5483 5481 5475 5469 5464 5459 5450 5440 5457 5445 5443 5439 5434 5428
5446 5448 5451 5454 5458 5462 5464 5466 5468 5471 5471 5469 5477 5475 5468 5455 5465 5477 5481 5487 5484 5488 5486 5481 5480 5483 5476 5471 5470 5463 5460 5457 5458 5456 5461 5453 5455 5446 5442 5433 5435 5434 5429 5424 5418 5416 5411
Wind_Speed
8 9 9 9 10 10 11 13 15 17 19 19 19 19 20 20 21 23 25 28 29 27 25 22 19 18 18 17 17 17 18 19 20 22 23 25 24 24 25 27 28 29 30 31 31 31 35
6 6 6 6 8 10 13 16 19 20 21 20 19 20 20 20 21 23 26 27 28 28 26 22 21 19 19 17 17 19 20 20 22 24 25 25 25 25 26 27 30 30 32 32 32 31 33
1 2 5 7 10 13 16 18 20 21 21 20 20 20 20 21 23 25 27 28 28 28 26 23 22 21 20 19 18 19 22 23 24 24 25 24 25 26 26 28 29 30 31 32 32 32 33
3 4 6 7 9 11 12 14 16 18 18 20 22 22 22 23 24 26 28 28 28 27 25 23 22 22 20 20 21 23 23 22 24 25 25 25 26 27 28 29 29 31 31 33 32 32 34
3 3 4 6 7 9 10 12 14 15 17 17 15 19 20 21 24 26 27 27 26 25 23 22 22 21 20 21 22 22 22 24 26 26 28 28 28 28 30 30 30 31 32 33 34 32 34
2 3 3 4 4 5 7 8 9 11 13 15 13 13 15 18 22 23 24 24 23 23 23 23 21 22 22 21 20 18 23 24 24 26 27 28 29 30 32 32 33 33 33 34 36 35 34
3 3 4 4 5 5 6 8 9 10 10 10 11 12 14 16 19 21 22 22 22 23 23 24 22 22 20 21 20 22 22 21 24 26 28 29 30 32 33 33 35 36 36 36 38 38 35
4 6 5 6 6 6 5 6 8 9 8 9 10 12 15 17 19 21 22 23 24 24 23 21 22 23 25 25 26 28 26 25 27 29 30 31 32 35 36 37 37 38 39 39 40 40 39
8 10 9 9 10 8 8 9 9 10 10 12 13 14 17 19 20 22 23 24 26 27 28 24 25 26 26 27 27 30 30 32 33 32 34 34 34 37 39 40 39 39 41 41 43 42 40
15 15 14 12 13 14 13 12 13 14 15 16 17 19 20 21 22 25 25 26 27 30 31 30 30 29 28 29 30 29 34 37 36 37 37 37 37 38 39 40 41 41 43 45 44 45 44
20 20 19 18 17 17 18 18 18 18 19 20 21 23 24 25 26 27 29 30 32 32 35 34 35 34 34 35 33 33 36 39 39 39 39 38 40 40 39 40 42 43 46 47 47 47 45
23 23 23 23 23 23 24 23 23 24 25 25 27 28 28 30 31 32 34 35 37 38 40 39 40 39 38 38 37 38 39 40 41 41 39 40 41 42 40 41 43 44 45 48 49 49 46
27 27 26 26 26 26 27 28 28 29 30 31 30 32 34 35 36 37 38 39 41 40 39 41 41 41 42 40 41 41 41 40 41 43 41 43 42 43 43 44 44 44 46 51 52 50 48
30 30 30 30 29 29 30 30 31 32 33 34 36 36 36 37 39 41 43 44 45 42 41 41 41 43 42 42 43 43 44 42 41 44 46 46 48 47 47 46 47 46 46 48 54 52 52
32 33 32 33 32 32 32 33 33 34 34 36 36 37 39 40 41 42 44 45 43 42 42 43 44 45 45 44 47 47 47 45 44 45 48 49 52 51 48 47 46 47 46 48 51 53 55
38 38 38 37 37 36 36 36 36 37 38 39 40 40 40 41 42 43 44 42 43 42 44 46 47 48 47 45 47 48 49 48 46 47 48 51 54 53 49 49 46 47 48 49 49 54 58
44 44 44 43 43 42 41 41 42 42 43 44 45 45 44 45 46 46 45 44 44 44 46 47 48 48 47 46 47 49 50 48 48 47 49 50 52 54 51 49 47 49 50 48 51 54 62
48 48 49 49 48 47 47 47 47 47 48 48 48 48 46 47 48 47 45 46 46 44 43 46 47 46 46 45 49 50 48 47 48 47 49 50 54 54 53 52 51 52 50 49 53 57 61
52 53 54 54 53 53 53 52 51 51 50 50 51 50 49 49 50 48 48 48 49 45 44 47 49 50 50 51 53 54 52 49 52 51 53 51 54 55 53 53 52 52 52 55 59 63 62
53 55 57 56 56 56 56 55 55 54 52 51 53 53 50 52 52 51 51 51 50 48 48 51 54 53 51 50 50 50 46 45 43 44 48 50 52 49 49 53 55 54 54 58 64 67 62
53 54 54 51 55 57 55 55 57 58 57 54 54 54 54 54 53 54 55 55 53 55 57 56 55 51 46 48 46 43 42 42 45 45 49 53 55 56 55 58 59 58 60 61 65 64 66
55 53 53 52 54 51 51 51 51 57 60 60 58 57 58 57 57 57 58 55 55 53 55 52 52 49 50 50 42 43 43 46 49 50 52 53 57 58 58 57 59 61 62 63 65 65 64
54 50 50 51 55 52 53 52 49 50 52 55 55 55 56 60 60 61 59 56 52 53 54 53 53 53 51 45 48 47 47 47 49 50 51 55 56 61 62 61 62 65 56 58 63 61 62
59 59 56 53 57 58 55 52 51 53 53 50 60 57 61 66 65 61 59 56 52 49 53 47 48 49 46 51 49 50 50 51 53 51 53 57 59 61 61 59 65 60 62 65 63 60 62
68 65 64 66 66 64 62 60 57 56 59 59 56 56 55 59 64 71 59 53 51 50 50 49 46 48 54 55 58 60 59 60 57 56 58 61 61 61 62 67 70 62 63 66 65 61 59
76 75 74 73 72 69 67 66 65 64 64 67 68 64 63 64 59 57 59 57 58 57 56 53 57 59 59 60 62 65 66 66 66 65 62 63 63 64 67 71 69 63 65 65 63 63 51
85 83 82 80 78 77 76 74 72 70 69 70 67 68 70 73 65 68 67 66 67 67 67 65 65 68 66 65 68 69 72 70 71 68 67 67 67 70 67 67 70 66 61 59 61 57 56
90 90 88 87 85 83 82 80 78 77 76 77 73 73 76 76 75 74 73 73 74 73 73 71 72 74 72 74 74 73 72 70 74 72 71 66 64 66 63 66 73 65 67 64 59 57 53
92 92 91 91 90 88 86 86 85 84 83 83 81 79 80 84 85 81 79 78 79 76 76 77 76 74 76 77 77 76 75 65 75 81 72 66 58 59 66 71 73 70 66 64 62 61 59
Wind_Direction
173 173 180 181 185 188 197 206 216 225 232 237 241 242 242 237 230 222 217 213 212 215 218 222 228 240 248 252 260 267 275 283 291 296 300 303 305 311 315 313 314 316 317 316 316 318 319
152 167 177 194 208 217 223 231 238 240 244 247 246 244 241 236 229 225 218 215 217 219 221 224 233 244 249 254 264 272 279 287 292 296 300 303 305 309 312 311 312 314 315 317 316 319 321
175 247 253 250 252 251 253 254 255 255 254 251 247 244 241 234 227 223 218 217 220 220 221 228 238 244 249 256 265 275 282 289 291 293 300 301 304 306 308 310 311 314 314 315 316 319 321
358 321 294 281 274 268 266 264 260 255 251 250 250 245 244 236 228 222 218 220 220 224 227 234 240 245 253 262 271 276 283 289 291 292 296 300 303 306 307 308 311 313 313 311 313 316 320
16 341 311 287 274 269 266 263 259 259 257 251 251 248 240 236 229 223 222 220 222 228 235 240 245 252 262 268 274 279 281 290 289 290 296 298 299 303 304 307 310 309 311 309 309 315 318
27 6 337 326 298 279 271 266 268 270 268 261 250 246 231 229 226 223 222 222 225 233 242 245 253 256 265 269 277 280 289 288 289 298 301 299 300 301 303 307 308 309 307 307 307 311 315
331 328 321 311 290 290 277 269 264 262 254 242 233 228 223 221 225 222 221 224 232 238 242 251 254 261 262 266 273 288 289 290 297 302 303 303 303 301 305 306 308 309 307 306 305 306 309
282 288 289 284 261 257 265 259 259 261 246 237 227 230 228 223 221 224 227 230 236 243 248 253 260 268 274 276 276 290 283 293 299 304 306 306 305 304 304 304 306 307 307 305 304 304 307
255 267 269 276 282 282 279 276 266 254 249 245 242 236 233 227 231 233 236 241 244 245 248 256 266 272 279 280 281 287 280 290 297 300 303 304 306 306 305 303 303 306 307 306 304 303 305
260 264 266 265 269 275 276 272 266 262 254 248 246 240 236 237 244 247 249 249 253 255 258 258 269 278 279 281 287 283 283 287 292 296 298 302 304 304 304 302 303 305 305 306 304 302 303
260 263 266 269 269 265 263 265 266 261 255 252 246 245 246 246 248 250 254 258 262 264 271 272 277 279 281 286 286 283 284 286 290 294 297 300 301 302 303 304 306 306 304 304 304 301 300
265 264 264 265 266 266 265 262 261 263 260 255 255 254 252 254 254 256 260 263 266 271 279 282 282 283 283 287 287 287 286 287 290 292 294 296 298 299 300 301 303 304 305 301 301 300 298
268 266 265 264 263 263 264 264 264 261 261 262 261 261 263 263 264 265 266 268 270 272 277 278 280 282 283 285 284 285 285 285 288 290 292 291 293 294 296 296 299 300 304 304 302 300 300
271 270 268 266 264 263 262 262 264 264 263 262 261 261 264 267 269 271 271 271 272 276 276 277 278 277 278 280 280 282 282 283 285 288 290 290 291 291 292 294 296 297 298 303 301 300 299
271 269 267 267 265 263 264 265 266 266 267 267 266 265 263 262 264 267 270 272 276 277 276 276 276 276 278 281 281 281 282 283 285 285 285 287 287 288 290 292 294 295 297 300 300 297 297
272 271 270 269 268 267 267 268 268 269 269 270 270 268 269 268 269 268 269 272 275 275 274 275 276 279 280 280 281 282 282 283 283 282 281 284 286 287 290 291 294 293 297 300 302 298 299
271 271 270 269 269 269 268 268 270 270 270 270 270 270 270 271 272 272 275 277 275 275 275 277 278 279 280 282 280 280 281 283 283 282 282 284 284 288 290 292 294 296 297 297 297 299 299
268 269 269 270 270 269 269 269 269 269 271 272 272 271 271 271 272 274 275 275 274 274 275 277 278 278 277 277 278 278 280 281 285 284 283 283 287 289 291 295 297 296 297 295 296 298 297
267 267 268 268 268 268 269 269 269 268 268 269 270 271 272 272 272 273 272 272 273 275 276 277 277 276 276 277 279 281 285 288 285 286 288 288 286 289 294 296 296 297 299 297 296 296 298
270 269 267 266 267 267 268 269 269 268 267 267 268 269 269 269 271 271 270 271 272 272 273 276 278 279 280 279 279 282 286 284 284 284 284 285 286 289 290 293 294 295 294 293 293 292 300
273 273 272 273 267 265 267 268 268 268 267 267 268 271 272 274 274 272 272 274 275 277 276 274 274 274 275 275 278 284 283 282 282 285 285 287 289 291 292 292 292 291 292 292 294 298 293
269 272 270 271 269 268 267 268 269 270 269 268 266 266 267 269 272 272 273 275 275 272 273 274 273 271 272 276 280 278 281 282 283 284 287 290 291 291 290 293 293 292 292 298 297 296 296
270 270 267 265 266 268 268 267 262 256 263 263 260 260 263 263 263 266 270 269 266 266 269 270 271 271 274 277 277 281 283 282 284 287 295 297 299 299 297 296 295 291 305 299 298 300 296
268 268 266 262 261 259 257 253 250 250 250 251 258 259 260 260 261 262 261 262 262 264 268 272 274 276 279 276 281 283 284 285 288 293 292 292 292 290 291 289 288 302 303 301 297 294 294
262 259 260 262 266 267 267 260 257 257 268 269 268 266 268 265 263 262 265 269 271 274 277 278 281 280 281 285 285 285 284 284 287 286 289 290 289 289 286 287 290 299 299 292 291 288 287
262 262 262 261 262 263 264 265 264 265 268 273 277 277 275 275 268 272 273 273 273 276 274 276 279 281 284 283 283 285 286 287 287 287 290 289 288 287 288 287 287 300 293 292 289 284 286
264 263 263 263 263 263 262 262 262 262 262 262 265 266 266 266 271 270 275 274 276 277 279 278 278 278 278 279 279 282 284 287 286 288 289 290 291 290 288 284 285 298 289 284 282 294 287
263 263 263 263 262 262 262 262 261 260 260 260 261 262 264 263 265 267 267 269 273 274 275 278 277 277 278 280 282 285 286 290 287 288 291 290 287 286 284 283 285 292 286 285 288 290 288
260 261 261 262 262 261 261 260 260 260 260 260 260 260 261 261 266 264 265 268 270 273 274 274 273 275 278 279 282 284 285 284 280 282 287 281 283 278 281 285 288 286 287 291 293 293 289